When you browse on this site, cookies collect data to enhance your experience and personalize the content and advertising you see.
Visit our Privacy Policy to learn more. By continuing to use the site, you agree to this use of cookies and data.
  • In Latvia
  • List of Countries
  • For 7 days
  • Water Temperature
  • Satellite Maps
  • Weather Map
  • Weather Widgets
  • user-avatar
    Login

    Hourly Weather Daugavpils

    Today, 19 November, Monday

    Time Temperature Precipitation Wind Pressure Humidity
    00:00 0°C° 0 mm 4 mps 761 mmHg 83%
    01:00 0°C° 0 mm 4 mps 761 mmHg 84%
    02:00 0°C° 0 mm 4 mps 762 mmHg 85%
    03:00 0°C° 0 mm 4 mps 762 mmHg 86%
    04:00 0°C° 0 mm 4 mps 762 mmHg 86%
    05:00 0°C° 0 mm 4 mps 762 mmHg 87%
    06:00 0°C° 0 mm 4 mps 762 mmHg 87%
    07:00 0°C° 0 mm 4 mps 763 mmHg 88%
    08:00 +1°C° 0 mm 3 mps 763 mmHg 88%
    09:00 0°C° 0 mm 4 mps 763 mmHg 86%
    10:00 0°C° 0 mm 4 mps 764 mmHg 84%
    11:00 0°C° 0 mm 4 mps 764 mmHg 82%
    12:00 0°C° 0 mm 4 mps 764 mmHg 82%
    13:00 0°C° 0 mm 4 mps 764 mmHg 81%
    14:00 +2°C° 0 mm 3 mps 764 mmHg 80%
    15:00 +1°C° 0 mm 3 mps 764 mmHg 81%
    16:00 +1°C° 0 mm 3 mps 764 mmHg 81%
    17:00 +1°C° 0 mm 3 mps 764 mmHg 82%
    18:00 +1°C° 0 mm 3 mps 764 mmHg 82%
    19:00 0°C° 0 mm 3 mps 764 mmHg 82%
    20:00 0°C° 0 mm 3 mps 764 mmHg 82%
    21:00 +1°C° 0 mm 2 mps 765 mmHg 83%
    22:00 +1°C° 0 mm 2 mps 765 mmHg 84%
    23:00 -1°C° 0 mm 2 mps 765 mmHg 84%

    Tomorrow, 20 November, Tuesday

    Time Temperature Precipitation Wind Pressure Humidity
    00:00 -1°C° 0 mm 2 mps 765 mmHg 85%
    01:00 -1°C° 0 mm 2 mps 765 mmHg 86%
    02:00 -1°C° 0 mm 2 mps 765 mmHg 87%
    03:00 -2°C° 0 mm 2 mps 764 mmHg 88%
    04:00 -2°C° 0 mm 2 mps 764 mmHg 89%
    05:00 0°C° 0 mm 1 mps 764 mmHg 90%
    06:00 -1°C° 0 mm 1 mps 764 mmHg 90%
    07:00 -1°C° 0 mm 1 mps 764 mmHg 89%
    08:00 -1°C° 0 mm 1 mps 764 mmHg 88%
    09:00 0°C° 0 mm 1 mps 764 mmHg 84%
    10:00 0°C° 0 mm 1 mps 763 mmHg 80%
    11:00 0°C° 0 mm 1 mps 763 mmHg 76%
    12:00 +1°C° 0 mm 1 mps 763 mmHg 74%
    13:00 +1°C° 0 mm 1 mps 763 mmHg 72%
    14:00 0°C° 0 mm 0 mps 763 mmHg 69%
    15:00 0°C° 0 mm 0 mps 763 mmHg 73%
    16:00 0°C° 0 mm 1 mps 762 mmHg 76%
    17:00 -1°C° 0 mm 1 mps 762 mmHg 80%
    18:00 -1°C° 0 mm 1 mps 762 mmHg 80%
    19:00 -1°C° 0 mm 1 mps 762 mmHg 80%
    20:00 -1°C° 0 mm 1 mps 762 mmHg 80%
    21:00 -1°C° 0 mm 1 mps 762 mmHg 79%
    22:00 -1°C° 0 mm 1 mps 762 mmHg 78%
    23:00 -2°C° 0 mm 0 mps 762 mmHg 77%

    Day after tomorrow, 21 November, Wednesday

    Time Temperature Precipitation Wind Pressure Humidity
    00:00 -1°C° 0 mm 1 mps 762 mmHg 76%
    01:00 -1°C° 0 mm 1 mps 762 mmHg 76%
    02:00 -1°C° 0 mm 1 mps 762 mmHg 75%
    03:00 -1°C° 0 mm 1 mps 762 mmHg 75%
    04:00 -1°C° 0 mm 1 mps 762 mmHg 76%
    05:00 -1°C° 0 mm 1 mps 762 mmHg 76%
    06:00 -1°C° 0 mm 1 mps 762 mmHg 79%
    07:00 -1°C° 0 mm 1 mps 762 mmHg 81%
    08:00 -1°C° 0 mm 1 mps 762 mmHg 84%
    09:00 0°C° 0 mm 1 mps 762 mmHg 83%
    10:00 0°C° 0 mm 1 mps 762 mmHg 82%
    11:00 -1°C° 0 mm 2 mps 762 mmHg 82%
    12:00 +2°C° 0 mm 1 mps 762 mmHg 81%
    13:00 +2°C° 0 mm 1 mps 762 mmHg 80%
    14:00 +2°C° 0 mm 1 mps 762 mmHg 79%
    15:00 +2°C° 0 mm 1 mps 762 mmHg 80%
    16:00 +1°C° 0 mm 1 mps 762 mmHg 82%
    17:00 +1°C° 0 mm 1 mps 762 mmHg 83%
    18:00 0°C° 0 mm 1 mps 762 mmHg 84%
    19:00 0°C° 0 mm 1 mps 762 mmHg 85%
    20:00 0°C° 0 mm 1 mps 762 mmHg 86%
    21:00 -1°C° 0 mm 1 mps 762 mmHg 88%
    22:00 -1°C° 0 mm 1 mps 762 mmHg 89%
    23:00 -1°C° 0 mm 1 mps 762 mmHg 91%

    22 November, Thursday

    Time Temperature Precipitation Wind Pressure Humidity
    00:00 -1°C° 0 mm 1 mps 762 mmHg 91%
    01:00 -1°C° 0 mm 1 mps 762 mmHg 91%
    02:00 -1°C° 0 mm 1 mps 762 mmHg 92%
    03:00 -1°C° 0 mm 1 mps 762 mmHg 92%
    04:00 -2°C° 0 mm 1 mps 762 mmHg 92%
    05:00 -2°C° 0 mm 1 mps 762 mmHg 92%
    06:00 -2°C° 0 mm 1 mps 761 mmHg 92%
    07:00 -2°C° 0 mm 1 mps 761 mmHg 91%
    08:00 -4°C° 0 mm 2 mps 761 mmHg 91%
    09:00 -3°C° 0 mm 2 mps 761 mmHg 86%
    10:00 -2°C° 0 mm 2 mps 761 mmHg 82%
    11:00 -2°C° 0 mm 2 mps 761 mmHg 77%
    12:00 -1°C° 0 mm 3 mps 761 mmHg 77%
    13:00 -1°C° 0 mm 3 mps 761 mmHg 76%
    14:00 -1°C° 0 mm 3 mps 760 mmHg 76%
    15:00 -1°C° 0 mm 3 mps 760 mmHg 80%
    16:00 -2°C° 0 mm 3 mps 760 mmHg 84%
    17:00 -4°C° 0 mm 3 mps 760 mmHg 88%
    18:00 -2°C° 0 mm 3 mps 760 mmHg 88%
    19:00 -2°C° 0 mm 3 mps 760 mmHg 88%
    20:00 -2°C° 0 mm 3 mps 760 mmHg 88%
    21:00 -2°C° 0 mm 2 mps 760 mmHg 89%
    22:00 -2°C° 0 mm 2 mps 760 mmHg 90%
    23:00 -2°C° 0 mm 2 mps 760 mmHg 91%

    23 November, Friday

    Time Temperature Precipitation Wind Pressure Humidity
    00:00 -2°C° 0 mm 2 mps 761 mmHg 92%
    01:00 -2°C° 0 mm 2 mps 761 mmHg 93%
    02:00 -2°C° 0 mm 2 mps 761 mmHg 94%
    03:00 -2°C° 0 mm 2 mps 761 mmHg 94%
    04:00 0°C° 0 mm 1 mps 761 mmHg 94%
    05:00 0°C° 0 mm 1 mps 761 mmHg 94%
    06:00 0°C° 0 mm 1 mps 761 mmHg 94%
    07:00 0°C° 0 mm 1 mps 761 mmHg 94%
    08:00 0°C° 0 mm 1 mps 762 mmHg 94%
    09:00 0°C° 0 mm 1 mps 762 mmHg 92%
    10:00 +1°C° 0 mm 1 mps 762 mmHg 90%
    11:00 -1°C° 0 mm 2 mps 762 mmHg 88%
    12:00 -1°C° 0 mm 2 mps 762 mmHg 87%
    13:00 -1°C° 0 mm 2 mps 762 mmHg 85%
    14:00 -1°C° 0 mm 2 mps 761 mmHg 84%
    15:00 -1°C° 0 mm 2 mps 761 mmHg 87%
    16:00 -2°C° 0 mm 2 mps 761 mmHg 90%
    17:00 -3°C° 0 mm 2 mps 761 mmHg 93%
    18:00 -3°C° 0 mm 2 mps 760 mmHg 92%
    19:00 -3°C° 0 mm 2 mps 760 mmHg 91%
    20:00 -3°C° 0 mm 2 mps 760 mmHg 91%
    21:00 -3°C° 0 mm 2 mps 759 mmHg 89%
    22:00 -5°C° 0 mm 3 mps 759 mmHg 87%
    23:00 -5°C° 0 mm 3 mps 759 mmHg 85%

    24 November, Saturday

    Time Temperature Precipitation Wind Pressure Humidity
    00:00 -5°C° 0 mm 3 mps 758 mmHg 84%
    01:00 -5°C° 0 mm 3 mps 758 mmHg 84%
    02:00 -5°C° 0 mm 3 mps 758 mmHg 83%
    03:00 -5°C° 0 mm 3 mps 757 mmHg 83%
    04:00 -5°C° 0 mm 3 mps 757 mmHg 83%
    05:00 -4°C° 0 mm 2 mps 756 mmHg 84%
    06:00 -4°C° 0 mm 2 mps 756 mmHg 84%
    07:00 -5°C° 0 mm 2 mps 755 mmHg 84%
    08:00 -5°C° 0 mm 2 mps 755 mmHg 84%
    09:00 -4°C° 0 mm 2 mps 755 mmHg 81%
    10:00 -3°C° 0 mm 2 mps 755 mmHg 77%
    11:00 -3°C° 0 mm 2 mps 755 mmHg 74%
    12:00 -3°C° 0 mm 2 mps 755 mmHg 73%
    13:00 0°C° 0 mm 1 mps 754 mmHg 72%
    14:00 0°C° 0 mm 1 mps 754 mmHg 72%
    15:00 0°C° 0 mm 1 mps 754 mmHg 73%
    16:00 0°C° 0 mm 1 mps 754 mmHg 75%
    17:00 -1°C° 0 mm 1 mps 754 mmHg 77%
    18:00 -1°C° 0 mm 1 mps 754 mmHg 77%
    19:00 -1°C° 0 mm 1 mps 753 mmHg 78%
    20:00 -1°C° 0 mm 1 mps 753 mmHg 78%
    21:00 -1°C° 0 mm 1 mps 753 mmHg 79%
    22:00 -1°C° 0 mm 1 mps 754 mmHg 81%
    23:00 -1°C° 0 mm 1 mps 754 mmHg 82%
    Show more